TimeEST,TemperatureF,Dew PointF,Humidity,Sea Level PressureIn,VisibilityMPH,Wind Direction,Wind SpeedMPH,Gust SpeedMPH,PrecipitationIn,Events,Conditions,WindDirDegrees,DateUTC
12:53 AM,57.0,55.9,96,30.00,-9999.0,Calm,Calm,-,N/A,,Unknown,0,2014-01-28 05:53:00
1:53 AM,57.0,55.9,96,29.99,-9999.0,Calm,Calm,-,N/A,,Unknown,0,2014-01-28 06:53:00
2:53 AM,57.9,57.0,97,29.99,-9999.0,Calm,Calm,-,0.01,,Unknown,0,2014-01-28 07:53:00
3:53 AM,57.9,57.9,100,29.98,-9999.0,Calm,Calm,-,0.01,,Unknown,0,2014-01-28 08:53:00
4:53 AM,57.9,57.9,100,29.97,-9999.0,Calm,Calm,-,N/A,,Unknown,0,2014-01-28 09:53:00
5:53 AM,59.0,59.0,100,29.99,-9999.0,Calm,Calm,-,N/A,,Unknown,0,2014-01-28 10:53:00
6:53 AM,59.0,59.0,100,30.00,-9999.0,Calm,Calm,-,0.01,,Unknown,0,2014-01-28 11:53:00
7:53 AM,59.0,57.9,96,30.02,-9999.0,Calm,Calm,-,N/A,,Unknown,0,2014-01-28 12:53:00
8:53 AM,60.1,60.1,100,30.03,-9999.0,Calm,Calm,-,N/A,,Unknown,0,2014-01-28 13:53:00
9:53 AM,61.0,61.0,100,30.05,-9999.0,Calm,Calm,-,N/A,,Unknown,0,2014-01-28 14:53:00
10:53 AM,62.1,61.0,96,30.06,-9999.0,Calm,Calm,-,N/A,,Unknown,0,2014-01-28 15:53:00
11:53 AM,64.0,61.0,90,30.05,-9999.0,Calm,Calm,-,N/A,,Unknown,0,2014-01-28 16:53:00
12:53 PM,63.0,61.0,93,30.03,-9999.0,North,4.6,-,N/A,,Unknown,350,2014-01-28 17:53:00
1:53 PM,60.1,59.0,96,30.00,-9999.0,North,6.9,-,0.01,,Unknown,360,2014-01-28 18:53:00
2:53 PM,57.0,57.0,100,30.00,-9999.0,North,10.4,-,N/A,,Unknown,10,2014-01-28 19:53:00
3:53 PM,55.0,54.0,96,30.00,-9999.0,NNE,8.1,-,N/A,,Unknown,20,2014-01-28 20:53:00
4:53 PM,54.0,53.1,97,29.99,-9999.0,NNE,6.9,-,N/A,,Unknown,30,2014-01-28 21:53:00
5:53 PM,53.1,52.0,96,29.99,-9999.0,NE,5.8,-,N/A,,Unknown,40,2014-01-28 22:53:00
6:53 PM,53.1,52.0,96,30.00,-9999.0,NNE,5.8,-,N/A,,Unknown,20,2014-01-28 23:53:00
7:53 PM,52.0,51.1,97,30.01,-9999.0,NNE,8.1,-,N/A,,Unknown,30,2014-01-29 00:53:00
8:53 PM,50.0,48.9,96,30.04,-9999.0,North,10.4,-,0.16,,Unknown,350,2014-01-29 01:53:00
9:53 PM,48.0,46.9,96,30.07,-9999.0,North,9.2,-,0.10,,Unknown,360,2014-01-29 02:53:00
10:53 PM,46.0,45.0,96,30.06,-9999.0,Variable,4.6,-,0.07,,Unknown,0,2014-01-29 03:53:00
11:53 PM,46.9,46.0,97,30.07,-9999.0,NNE,4.6,-,0.18,,Unknown,20,2014-01-29 04:53:00